GW4912 Weather Reports


time (UTC)temp
F
wind
direction
speed
knots
gust
knots
rain 1hr
in
rain 24hr
in
rain mn
in
humidity
%
barometer
mb
20260508125429 53 318 3.5 6.1 0.00 0.00 0.00 69 1012.4
20260508124927 52 344 0.0 2.6 0.00 0.00 0.00 71 1012.6
20260508124425 51 14 2.6 3.5 0.00 0.00 0.00 73 1012.4
20260508123922 51 3 1.7 3.5 0.00 0.00 0.00 73 1012.5
20260508123421 51 35 0.0 3.5 0.00 0.00 0.00 73 1012.5
20260508122917 51 317 3.5 3.5 0.00 0.00 0.00 73 1012.6
20260508122414 50 23 2.6 3.5 0.00 0.00 0.00 74 1012.6
20260508121911 50 13 2.6 5.2 0.00 0.00 0.00 75 1012.4
20260508121409 50 23 3.5 5.2 0.00 0.00 0.00 76 1012.3
20260508120906 50 345 0.9 3.5 0.00 0.00 0.00 77 1012.4
20260508120404 50 354 2.6 4.3 0.00 0.00 0.00 77 1012.5
20260508115901 49 23 2.6 4.3 0.00 0.00 0.00 79 1012.2
20260508115359 49 42 2.6 3.5 0.00 0.00 0.00 80 1012.2
20260508114855 49 50 3.5 4.3 0.00 0.00 0.00 81 1012.0
20260508114352 49 16 2.6 3.5 0.00 0.00 0.00 80 1012.1
20260508113849 49 7 1.7 3.5 0.00 0.00 0.00 80 1011.8
20260508113347 49 10 2.6 3.5 0.00 0.00 0.00 80 1012.0
20260508112844 48 60 1.7 3.5 0.00 0.00 0.00 80 1012.1
20260508112341 48 40 1.7 2.6 0.00 0.00 0.00 81 1011.8
20260508111837 48 23 1.7 2.6 0.00 0.00 0.00 80 1011.8
20260508111334 48 34 1.7 3.5 0.00 0.00 0.00 79 1011.6
20260508110831 49 22 2.6 3.5 0.00 0.00 0.00 79 1011.6
20260508110329 49 357 2.6 3.5 0.00 0.00 0.00 78 1011.8
20260508105829 49 8 3.5 4.3 0.00 0.00 0.00 77 1011.4
20260508105326 49 17 2.6 3.5 0.00 0.00 0.00 76 1011.7
20260508104822 49 10 1.7 3.5 0.00 0.00 0.00 76 1011.8
20260508104319 49 8 2.6 3.5 0.00 0.00 0.00 75 1011.5
20260508103817 49 359 3.5 4.3 0.00 0.00 0.00 75 1011.7
20260508103313 49 356 3.5 5.2 0.00 0.00 0.00 75 1011.4
20260508102811 48 108 2.6 5.2 0.00 0.00 0.00 76 1011.5
20260508102309 48 341 3.5 5.2 0.00 0.00 0.00 76 1011.5
20260508101806 48 14 3.5 5.2 0.00 0.00 0.00 76 1011.5
20260508101303 48 12 3.5 7.8 0.00 0.00 0.00 77 1011.4
20260508100801 47 357 4.3 5.2 0.00 0.00 0.00 80 1011.6
20260508100259 47 24 2.6 5.2 0.00 0.00 0.00 82 1011.6
20260508095754 47 9 2.6 4.3 0.00 0.00 0.00 83 1011.7
20260508095252 47 33 3.5 5.2 0.00 0.00 0.00 82 1011.7
20260508094749 46 12 2.6 4.3 0.00 0.00 0.00 83 1011.7
20260508094246 46 17 1.7 3.5 0.00 0.00 0.00 84 1011.5
20260508093743 45 45 2.6 3.5 0.00 0.00 0.00 85 1011.5
20260508093241 45 40 0.9 2.6 0.00 0.00 0.00 85 1011.6
20260508092737 45 34 1.7 1.7 0.00 0.00 0.00 85 1011.6
20260508092236 45 46 2.6 3.5 0.00 0.00 0.00 85 1011.8
20260508091733 45 350 1.7 3.5 0.00 0.00 0.00 84 1011.6
20260508091230 45 56 1.7 2.6 0.00 0.00 0.00 84 1011.8
20260508090728 45 18 1.7 4.3 0.00 0.00 0.00 84 1011.7
20260508090225 45 31 1.7 3.5 0.00 0.00 0.00 84 1011.8
20260508085721 45 23 1.7 4.3 0.00 0.00 0.00 84 1011.8
20260508085219 45 16 1.7 4.3 0.00 0.00 0.00 84 1011.8
20260508084714 45 27 2.6 4.3 0.00 0.00 0.00 84 1011.9
20260508084212 46 27 3.5 5.2 0.00 0.00 0.00 83 1011.9
20260508083709 46 70 2.6 5.2 0.00 0.00 0.00 83 1011.7
20260508083207 46 16 1.7 5.2 0.00 0.00 0.00 82 1011.9
20260508082701 46 40 2.6 6.1 0.00 0.00 0.00 82 1012.0
20260508082159 46 37 2.6 5.2 0.00 0.00 0.00 82 1012.0
20260508081657 46 30 2.6 4.3 0.00 0.00 0.00 83 1012.0
20260508081153 46 16 2.6 4.3 0.00 0.00 0.00 83 1012.1
20260508080650 46 27 3.5 3.5 0.00 0.00 0.00 83 1012.0
20260508080149 46 42 2.6 5.2 0.00 0.00 0.00 83 1012.0
20260508075644 46 40 2.6 3.5 0.00 0.00 0.00 83 1012.1
20260508075142 46 14 2.6 3.5 0.00 0.00 0.00 82 1011.9
20260508074639 46 21 2.6 5.2 0.00 0.00 0.00 82 1012.1
20260508074136 46 16 1.7 4.3 0.00 0.00 0.00 82 1011.9
20260508073633 46 17 2.6 5.2 0.00 0.00 0.00 81 1012.2
20260508073131 46 20 5.2 5.2 0.00 0.00 0.00 81 1012.1
20260508072627 46 37 2.6 7.0 0.00 0.00 0.00 81 1012.2
20260508072124 46 23 3.5 5.2 0.00 0.00 0.00 80 1012.3
20260508071621 47 332 1.7 4.3 0.00 0.00 0.00 79 1012.2
20260508071120 47 348 2.6 5.2 0.00 0.00 0.00 78 1012.1
20260508070617 48 341 1.7 6.1 0.00 0.00 0.00 76 1012.2
20260508070115 48 339 3.5 7.8 0.00 0.00 0.00 76 1012.4
20260508065612 48 34 3.5 6.1 0.00 0.00 0.00 75 1012.4
20260508065110 48 7 5.2 7.8 0.00 0.00 0.00 74 1012.2
20260508064607 49 304 3.5 8.7 0.00 0.00 0.00 73 1012.2
20260508064105 48 332 3.5 8.7 0.00 0.00 0.00 73 1012.1
20260508063603 48 358 2.6 6.1 0.00 0.00 0.00 72 1012.3
20260508063101 48 318 1.7 6.1 0.00 0.00 0.00 72 1012.3
20260508062558 48 359 3.5 5.2 0.00 0.00 0.00 73 1012.3
20260508062054 48 12 0.0 4.3 0.00 0.00 0.00 72 1012.2
20260508061552 48 41 4.3 6.1 0.00 0.00 0.00 72 1012.2
20260508061048 48 31 1.7 7.0 0.00 0.00 0.00 72 1012.3
20260508060545 48 50 3.5 3.5 0.00 0.00 0.00 73 1012.2
20260508060043 48 23 4.3 4.3 0.00 0.00 0.00 73 1012.3
20260508055538 48 47 1.7 3.5 0.00 0.00 0.00 73 1012.4
20260508055035 48 33 4.3 5.2 0.00 0.00 0.00 73 1012.4
20260508054532 48 50 1.7 4.3 0.00 0.00 0.00 72 1012.3
20260508054029 48 345 2.6 2.6 0.00 0.00 0.00 73 1012.6
20260508053526 48 61 3.5 3.5 0.00 0.00 0.00 72 1012.6
20260508053025 48 48 1.7 2.6 0.00 0.00 0.00 72 1012.6
20260508052521 48 308 1.7 3.5 0.00 0.00 0.00 72 1012.6
20260508052018 48 68 0.0 1.7 0.00 0.00 0.00 72 1012.8
20260508051514 48 329 0.0 1.7 0.00 0.00 0.00 72 1012.7
20260508051009 47 9 1.7 2.6 0.00 0.00 0.00 73 1012.9
20260508050506 48 57 0.9 2.6 0.00 0.00 0.00 73 1012.9
20260508050003 48 21 1.7 2.6 0.00 0.00 0.00 72 1012.9
20260508045500 48 38 0.9 2.6 0.00 0.00 0.00 71 1012.8
20260508044957 48 12 0.9 2.6 0.00 0.00 0.00 71 1012.8
20260508044454 48 343 1.7 3.5 0.00 0.00 0.00 71 1012.8
20260508043949 48 29 2.6 4.3 0.00 0.00 0.00 70 1012.7
20260508043447 48 54 2.6 3.5 0.00 0.00 0.00 70 1012.7
20260508042943 48 30 1.7 3.5 0.00 0.00 0.00 70 1012.8
20260508042441 48 13 2.6 4.3 0.00 0.00 0.00 70 1012.8
20260508041938 48 49 1.7 3.5 0.00 0.00 0.00 70 1012.9
20260508041434 48 22 1.7 3.5 0.00 0.00 0.00 69 1012.9
20260508040931 49 34 3.5 3.5 0.00 0.00 0.00 68 1012.8
20260508040429 49 23 2.6 5.2 0.00 0.00 0.00 68 1012.8
20260508035926 49 344 1.7 4.3 0.00 0.00 0.00 68 1012.8
20260508035423 49 353 3.5 5.2 0.00 0.00 0.00 68 1012.8
20260508034919 49 10 2.6 4.3 0.00 0.00 0.00 68 1012.8
20260508034417 49 14 3.5 5.2 0.00 0.00 0.00 67 1012.9
20260508033913 49 45 6.1 7.0 0.00 0.00 0.00 67 1013.0
20260508033412 50 24 4.3 6.1 0.00 0.00 0.00 65 1013.1
20260508032909 50 16 6.1 7.0 0.00 0.00 0.00 65 1012.9
20260508032406 50 347 3.5 5.2 0.00 0.00 0.00 66 1012.9
20260508031903 50 2 3.5 6.1 0.00 0.00 0.00 64 1013.0
20260508031400 50 24 3.5 5.2 0.00 0.00 0.00 65 1012.9
20260508030855 50 342 3.5 7.8 0.00 0.00 0.00 64 1013.1
20260508030353 50 12 7.8 7.8 0.00 0.00 0.00 64 1013.2
20260508025850 49 357 4.3 5.2 0.00 0.00 0.00 65 1013.1
20260508025347 49 336 3.5 5.2 0.00 0.00 0.00 67 1013.0
20260508024844 48 5 3.5 4.3 0.00 0.00 0.00 69 1013.2
20260508024340 48 5 1.7 2.6 0.00 0.00 0.00 70 1013.0
20260508023837 47 0 1.7 2.6 0.00 0.00 0.00 70 1013.0
20260508023334 47 17 1.7 2.6 0.00 0.00 0.00 70 1013.0
20260508022831 47 16 1.7 3.5 0.00 0.00 0.00 70 1013.0
20260508022326 47 41 1.7 5.2 0.00 0.00 0.00 68 1013.0
20260508021824 45 5 1.7 2.6 0.00 0.00 0.00 78 1012.9
20260508021319 44 91 0.9 1.7 0.00 0.00 0.00 77 1012.8
20260508020816 44 70 1.7 1.7 0.00 0.00 0.00 76 1012.9
20260508020314 44 44 0.0 0.9 0.00 0.00 0.00 79 1012.7
20260508015810 44 76 0.0 0.0 0.00 0.00 0.00 80 1012.8
20260508015308 43 51 0.0 0.9 0.00 0.00 0.00 79 1012.9
20260508014805 43 78 1.7 1.7 0.00 0.00 0.00 78 1012.7
20260508014302 43 103 0.0 0.0 0.00 0.00 0.00 78 1012.6
20260508013757 42 75 0.0 0.9 0.00 0.00 0.00 77 1012.8
20260508013254 42 68 0.0 0.9 0.00 0.00 0.00 76 1012.6
20260508012751 43 38 0.0 0.9 0.00 0.00 0.00 75 1012.7
20260508012248 43 89 0.0 0.9 0.00 0.00 0.00 74 1012.4
20260508011746 44 110 0.0 0.0 0.00 0.00 0.00 74 1012.4
20260508011243 44 66 0.0 0.0 0.00 0.00 0.00 73 1012.3
20260508010740 44 66 0.0 0.0 0.00 0.00 0.00 72 1012.5
20260508010238 45 66 0.0 0.0 0.00 0.00 0.00 71 1012.2
20260508005735 45 66 0.0 0.0 0.00 0.00 0.00 70 1012.2
20260508005232 45 93 0.0 0.0 0.00 0.00 0.00 69 1012.5
20260508004727 46 77 0.0 0.9 0.00 0.00 0.00 68 1012.3
20260508004224 46 38 0.0 0.9 0.00 0.00 0.00 66 1012.3
20260508003720 47 89 0.0 0.9 0.00 0.00 0.00 64 1012.2
20260508003218 47 80 0.9 0.9 0.00 0.00 0.00 63 1012.2
20260508002714 48 124 0.0 0.0 0.00 0.00 0.00 61 1012.2
20260508002212 49 60 0.0 0.9 0.00 0.00 0.00 60 1012.3
20260508001707 50 44 0.0 1.7 0.00 0.00 0.00 58 1012.0
20260508001203 50 68 0.0 1.7 0.00 0.00 0.00 55 1012.1
20260508000700 51 55 0.0 0.9 0.00 0.00 0.00 53 1012.2
20260508000157 51 73 3.5 4.3 0.00 0.00 0.00 54 1012.2
20260507235653 51 22 0.9 1.7 0.00 0.00 0.00 53 1012.1
20260507235151 52 145 1.7 1.7 0.00 0.00 0.00 52 1012.1
20260507234648 52 157 1.7 3.5 0.00 0.00 0.00 52 1012.1
20260507234144 52 55 1.7 2.6 0.00 0.00 0.00 52 1012.1
20260507233641 53 98 0.9 1.7 0.00 0.00 0.00 52 1012.2
20260507233140 53 122 1.7 4.3 0.00 0.00 0.00 50 1012.2
20260507232636 53 103 0.0 3.5 0.00 0.00 0.00 52 1012.1
20260507232133 53 53 1.7 3.5 0.00 0.00 0.00 51 1012.2
20260507231629 54 31 0.9 5.2 0.00 0.00 0.00 50 1012.2
20260507231126 54 199 1.7 3.5 0.00 0.00 0.00 50 1012.2
20260507230622 54 56 1.7 3.5 0.00 0.00 0.00 49 1012.2
20260507230120 54 105 1.7 4.3 0.00 0.00 0.00 49 1012.3
20260507225614 55 206 3.5 3.5 0.00 0.00 0.00 50 1012.3
20260507225111 55 117 5.2 5.2 0.00 0.00 0.00 50 1012.2
20260507224607 55 326 0.0 3.5 0.00 0.00 0.00 48 1012.4
20260507224104 55 95 0.0 2.6 0.00 0.00 0.00 49 1012.3
20260507223600 55 345 3.5 7.8 0.00 0.00 0.00 50 1012.4
20260507223057 56 299 1.7 3.5 0.00 0.00 0.00 47 1012.2
20260507222554 57 327 1.7 2.6 0.00 0.00 0.00 50 1012.4
20260507222050 57 317 3.5 3.5 0.00 0.00 0.00 45 1012.5
20260507221547 59 255 1.7 3.5 0.00 0.00 0.00 44 1012.3
20260507221044 58 108 0.0 4.3 0.00 0.00 0.00 47 1012.3
20260507220541 59 349 1.7 5.2 0.00 0.00 0.00 45 1012.3
20260507220038 59 242 0.0 3.5 0.00 0.00 0.00 48 1012.3
20260507215534 58 136 1.7 9.6 0.00 0.00 0.00 43 1012.4
20260507215033 59 252 0.9 7.0 0.00 0.00 0.00 43 1012.4
20260507214530 59 187 0.0 4.3 0.00 0.00 0.00 45 1012.2
20260507214025 60 166 1.7 3.5 0.00 0.00 0.00 44 1012.1
20260507213522 59 264 0.9 3.5 0.00 0.00 0.00 45 1012.3
20260507213019 60 126 1.7 6.1 0.00 0.00 0.00 42 1012.2
20260507212514 61 138 3.5 7.0 0.00 0.00 0.00 42 1012.1
20260507212011 61 102 1.7 6.1 0.00 0.00 0.00 43 1012.2
20260507211508 61 152 1.7 5.2 0.00 0.00 0.00 44 1012.0
20260507211004 61 128 1.7 3.5 0.00 0.00 0.00 44 1012.1
20260507210502 61 77 2.6 9.6 0.00 0.00 0.00 45 1012.1
20260507205958 61 57 1.7 5.2 0.00 0.00 0.00 47 1011.9
20260507205455 61 180 0.9 6.1 0.00 0.00 0.00 48 1012.0
20260507204951 60 117 6.1 7.0 0.00 0.00 0.00 47 1011.9
20260507204448 61 143 5.2 7.0 0.00 0.00 0.00 47 1012.0
20260507203946 61 120 4.3 6.1 0.00 0.00 0.00 47 1011.9
20260507203443 60 7 1.7 3.5 0.00 0.00 0.00 50 1011.9
20260507202939 61 166 0.9 5.2 0.00 0.00 0.00 51 1011.9
20260507202436 61 164 0.0 5.2 0.00 0.00 0.00 49 1012.0
20260507201932 60 112 1.7 4.3 0.00 0.00 0.00 53 1011.9
20260507201432 60 134 3.5 6.1 0.00 0.00 0.00 56 1012.1
20260507200930 57 71 0.0 2.6 0.00 0.00 0.00 60 1012.1
20260507200425 55 125 1.7 5.2 0.00 0.00 0.00 57 1012.0
20260507195921 54 35 0.9 2.6 0.00 0.00 0.00 60 1011.9
20260507195419 55 51 1.7 3.5 0.00 0.00 0.00 56 1011.9
20260507194916 55 76 1.7 5.2 0.00 0.00 0.00 57 1011.8
20260507194413 56 128 4.3 8.7 0.00 0.00 0.00 55 1011.9
20260507193909 55 128 5.2 6.1 0.00 0.00 0.00 55 1012.0
20260507193406 56 195 0.9 2.6 0.00 0.00 0.00 58 1011.9
20260507192902 55 127 1.7 9.6 0.00 0.00 0.00 56 1012.0
20260507192358 56 286 1.7 4.3 0.00 0.00 0.00 57 1011.9
20260507191855 56 94 1.7 1.7 0.00 0.00 0.00 59 1012.0
20260507191351 56 157 0.0 5.2 0.00 0.00 0.00 55 1012.1
20260507190848 57 131 4.3 4.3 0.00 0.00 0.00 55 1012.2
20260507190346 57 86 1.7 2.6 0.00 0.00 0.00 55 1012.2
20260507185845 56 325 2.6 4.3 0.00 0.00 0.00 56 1012.0
20260507185342 57 328 3.5 3.5 0.00 0.00 0.00 52 1012.1
20260507184839 62 130 3.5 3.5 0.00 0.00 0.00 48 1012.3
20260507184337 58 45 0.9 5.2 0.00 0.00 0.00 55 1012.2
20260507183833 58 120 1.7 6.1 0.00 0.00 0.00 51 1012.3
20260507183330 56 61 0.0 4.3 0.00 0.00 0.00 58 1012.3
20260507182828 57 359 1.7 3.5 0.00 0.00 0.00 53 1012.3
20260507182323 59 25 0.0 4.3 0.00 0.00 0.00 52 1012.0
20260507181820 60 64 0.9 2.6 0.00 0.00 0.00 56 1012.2
20260507181316 55 9 1.7 4.3 0.00 0.00 0.00 54 1012.2
20260507180813 56 16 2.6 4.3 0.00 0.00 0.00 54 1012.3
20260507180310 56 297 2.6 7.0 0.00 0.00 0.00 53 1012.4
20260507175805 60 352 5.2 5.2 0.00 0.00 0.00 52 1012.1
20260507175306 59 184 1.7 2.6 0.00 0.00 0.00 57 1012.3
20260507174759 55 349 3.5 3.5 0.00 0.00 0.00 58 1012.3
20260507174257 56 5 0.0 4.3 0.00 0.00 0.00 56 1012.4
20260507173755 56 24 1.7 4.3 0.00 0.00 0.00 57 1012.4
20260507173252 57 132 0.9 5.2 0.00 0.00 0.00 56 1012.3
20260507172748 57 269 0.0 4.3 0.00 0.00 0.00 60 1012.4
20260507172245 57 120 1.7 2.6 0.00 0.00 0.00 57 1012.4
20260507171740 57 285 0.0 4.3 0.00 0.00 0.00 57 1012.5
20260507171238 58 108 3.5 8.7 0.00 0.00 0.00 54 1012.4
20260507170734 55 176 1.7 3.5 0.00 0.00 0.00 58 1012.6
20260507170226 57 213 2.6 3.5 0.00 0.00 0.00 57 1012.5
20260507165721 59 2 1.7 3.5 0.00 0.00 0.00 53 1012.6
20260507165217 59 347 0.0 2.6 0.00 0.00 0.00 52 1012.5
20260507164714 58 173 1.7 4.3 0.00 0.00 0.00 58 1012.5
20260507164212 60 161 1.7 3.5 0.00 0.00 0.00 51 1012.7
20260507163708 59 3 0.9 3.5 0.00 0.00 0.00 59 1012.4
20260507163206 57 335 1.7 3.5 0.00 0.00 0.00 53 1012.5
20260507162702 58 21 3.5 5.2 0.00 0.00 0.00 56 1012.3
20260507162158 60 344 4.3 5.2 0.00 0.00 0.00 53 1012.5
20260507161654 57 170 2.6 4.3 0.00 0.00 0.00 53 1012.4
20260507161151 58 17 3.5 4.3 0.00 0.00 0.00 54 1012.6
20260507160647 58 16 1.7 4.3 0.00 0.00 0.00 58 1012.6
20260507160144 59 35 1.7 2.6 0.00 0.00 0.00 56 1012.7
20260507155639 56 57 0.9 3.5 0.00 0.00 0.00 54 1012.7
20260507155136 58 134 0.9 2.6 0.00 0.00 0.00 53 1012.8
20260507154632 57 180 1.7 2.6 0.00 0.00 0.00 57 1012.7
20260507154131 53 354 1.7 3.5 0.00 0.00 0.00 58 1012.5
20260507153626 53 14 1.7 4.3 0.00 0.00 0.00 61 1012.7
20260507153123 54 329 2.6 4.3 0.00 0.00 0.00 60 1012.7
20260507152620 56 39 0.9 3.5 0.00 0.00 0.00 64 1012.7
20260507152116 55 358 3.5 4.3 0.00 0.00 0.00 58 1012.7
20260507151612 57 10 3.5 4.3 0.00 0.00 0.00 59 1012.6
20260507151109 57 28 3.5 7.0 0.00 0.00 0.00 61 1012.7
20260507150606 57 63 1.7 4.3 0.00 0.00 0.00 64 1012.8
20260507145557 55 19 2.6 7.0 0.00 0.00 0.00 65 1012.6
20260507145055 55 331 2.6 4.3 0.00 0.00 0.00 67 1012.9
20260507144551 56 316 2.6 3.5 0.00 0.00 0.00 68 1012.8
20260507144050 54 204 0.9 4.3 0.00 0.00 0.00 65 1012.7
20260507143546 55 305 2.6 3.5 0.00 0.00 0.00 70 1012.8
20260507143044 55 30 2.6 5.2 0.00 0.00 0.00 69 1012.8
20260507142538 53 10 3.5 5.2 0.00 0.00 0.00 68 1012.6
20260507142036 53 351 2.6 5.2 0.00 0.00 0.00 70 1012.8
20260507141532 53 37 1.7 5.2 0.00 0.00 0.00 70 1012.6
20260507141029 53 241 2.6 4.3 0.00 0.00 0.00 69 1012.9
20260507140526 52 357 3.5 4.3 0.00 0.00 0.00 69 1012.9
20260507140023 53 11 1.7 3.5 0.00 0.00 0.00 71 1012.9
20260507135520 52 1 3.5 6.1 0.00 0.00 0.00 70 1013.1
20260507135017 51 33 1.7 3.5 0.00 0.00 0.00 71 1013.0
20260507134514 51 6 2.6 5.2 0.00 0.00 0.00 71 1013.1
20260507134009 51 339 1.7 4.3 0.00 0.00 0.00 72 1013.0
20260507133505 51 17 2.6 4.3 0.00 0.00 0.00 71 1013.0
20260507133004 51 32 0.0 3.5 0.00 0.00 0.00 74 1013.1
20260507132500 50 331 1.7 4.3 0.00 0.00 0.00 74 1013.1
20260507131956 50 14 1.7 4.3 0.00 0.00 0.00 74 1013.1
20260507131453 50 18 4.3 4.3 0.00 0.00 0.00 74 1013.2
20260507130950 49 353 1.7 4.3 0.00 0.00 0.00 76 1013.1
20260507130447 49 21 3.5 3.5 0.00 0.00 0.00 76 1013.1
20260507125946 49 358 2.6 3.5 0.00 0.00 0.00 77 1013.1